Back to catalog

SL-12 DEB

LostHEO
NORAD 43542·DEBRIS·🇷🇺 Russia

Launched Mar 1, 2010 from Baikonur Cosmodrome

Loading…

Next Passes (next 24 hours)

TLE

StaleSource: Space-Track

Epoch: Apr 22, 2019, 21:47 UTC

1 43542U 10007AB  19112.90799531  .00296730  00000-0  10612+0 0  9999
2 43542  65.0750  57.1741 5808681  34.0781 352.2383  4.29171947 13449

Track SL-12 DEB in real time with AllMySat

Download on the App Store